LIC9562 LEBA-LEJE

Flight info

Callsign LIC9562
Flight time 0h 38m
Altitude 3500
Route VFR
Aircraft C172/L-SFG/C

Departure

Time 2026-05-06 17:02
Airport Córdoba Airport (LEBA)

Arrival

Time 2026-05-06 17:40
Airport Aeródromo Juan Espadafor (LEJE)
Time Latitude Longitude Altitude Speed Heading
2026-05-06 16:52 37.84373 -4.84572 308 ft 0 kts 117°
2026-05-06 16:55 37.84381 -4.84551 308 ft 6 kts 32°
2026-05-06 16:55 37.84421 -4.84510 308 ft 9 kts 85°
2026-05-06 16:56 37.84431 -4.84461 307 ft 5 kts 32°
2026-05-06 16:56 37.84468 -4.84467 307 ft 7 kts 303°
2026-05-06 16:56 37.84492 -4.84524 307 ft 8 kts 303°
2026-05-06 16:56 37.84514 -4.84572 306 ft 6 kts 297°
2026-05-06 16:57 37.84532 -4.84613 306 ft 5 kts 320°
2026-05-06 16:57 37.84579 -4.84613 306 ft 9 kts 20°
2026-05-06 16:57 37.84648 -4.84572 306 ft 12 kts 30°
2026-05-06 16:57 37.84694 -4.84504 306 ft 7 kts 67°
2026-05-06 16:58 37.84718 -4.84502 306 ft 4 kts 276°
2026-05-06 16:58 37.84704 -4.84525 306 ft 2 kts 221°
2026-05-06 16:58 37.84703 -4.84527 306 ft 0 kts 221°
2026-05-06 17:00 37.84582 -4.84611 306 ft 42 kts 208°
2026-05-06 17:01 37.84219 -4.84867 319 ft 72 kts 206°
2026-05-06 17:01 37.83761 -4.85201 393 ft 79 kts 214°
2026-05-06 17:01 37.83268 -4.85575 517 ft 84 kts 210°
2026-05-06 17:01 37.82766 -4.85969 663 ft 83 kts 210°
2026-05-06 17:02 37.82256 -4.86305 794 ft 83 kts 184°
2026-05-06 17:02 37.81901 -4.85867 943 ft 75 kts 107°
2026-05-06 17:02 37.81668 -4.85309 1071 ft 72 kts 115°
2026-05-06 17:02 37.81406 -4.84720 1148 ft 81 kts 133°
2026-05-06 17:03 37.80892 -4.84467 1232 ft 82 kts 162°
2026-05-06 17:03 37.80353 -4.84228 1328 ft 87 kts 164°
2026-05-06 17:03 37.79765 -4.83964 1429 ft 95 kts 164°
2026-05-06 17:03 37.79098 -4.83658 1545 ft 106 kts 166°
2026-05-06 17:04 37.78404 -4.83309 1636 ft 107 kts 163°
2026-05-06 17:04 37.77719 -4.82956 1739 ft 108 kts 163°
2026-05-06 17:04 37.77020 -4.82644 1842 ft 105 kts 164°
2026-05-06 17:04 37.76319 -4.82330 1943 ft 109 kts 165°
2026-05-06 17:05 37.75653 -4.81928 2040 ft 108 kts 132°
2026-05-06 17:05 37.75211 -4.81193 2142 ft 104 kts 132°
2026-05-06 17:05 37.74756 -4.80486 2246 ft 104 kts 130°
2026-05-06 17:05 37.74303 -4.79770 2337 ft 104 kts 130°
2026-05-06 17:06 37.73859 -4.79081 2436 ft 101 kts 129°
2026-05-06 17:06 37.73404 -4.78374 2529 ft 106 kts 133°
2026-05-06 17:06 37.72882 -4.77723 2640 ft 108 kts 141°
2026-05-06 17:06 37.72318 -4.77060 2752 ft 114 kts 140°
2026-05-06 17:07 37.71732 -4.76370 2843 ft 114 kts 139°
2026-05-06 17:07 37.71164 -4.75696 2964 ft 112 kts 138°
2026-05-06 17:07 37.70551 -4.75038 3060 ft 117 kts 146°
2026-05-06 17:07 37.69925 -4.74386 3153 ft 117 kts 145°
2026-05-06 17:08 37.69297 -4.73721 3261 ft 119 kts 144°
2026-05-06 17:08 37.68656 -4.73056 3354 ft 117 kts 143°
2026-05-06 17:08 37.67984 -4.72479 3455 ft 117 kts 152°
2026-05-06 17:08 37.67296 -4.71920 3500 ft 122 kts 152°
2026-05-06 17:09 37.66565 -4.71326 3508 ft 127 kts 152°
2026-05-06 17:09 37.65808 -4.70726 3505 ft 129 kts 151°
2026-05-06 17:09 37.65044 -4.70117 3505 ft 131 kts 151°
2026-05-06 17:09 37.64260 -4.69507 3508 ft 131 kts 152°
2026-05-06 17:10 37.63489 -4.68904 3509 ft 129 kts 152°
2026-05-06 17:10 37.62745 -4.68311 3497 ft 126 kts 152°
2026-05-06 17:10 37.62003 -4.67718 3512 ft 127 kts 152°
2026-05-06 17:10 37.61259 -4.67086 3512 ft 131 kts 144°
2026-05-06 17:11 37.60538 -4.66353 3501 ft 131 kts 145°
2026-05-06 17:11 37.59833 -4.65636 3506 ft 130 kts 144°
2026-05-06 17:11 37.59142 -4.64931 3505 ft 128 kts 144°
2026-05-06 17:11 37.58447 -4.64217 3503 ft 131 kts 144°
2026-05-06 17:12 37.57744 -4.63492 3500 ft 129 kts 144°
2026-05-06 17:12 37.57040 -4.62779 3504 ft 129 kts 144°
2026-05-06 17:12 37.56334 -4.62060 3509 ft 132 kts 144°
2026-05-06 17:12 37.55612 -4.61335 3509 ft 133 kts 145°
2026-05-06 17:13 37.54901 -4.60618 3510 ft 130 kts 146°
2026-05-06 17:13 37.54208 -4.59923 3510 ft 128 kts 144°
2026-05-06 17:13 37.53511 -4.59210 3505 ft 129 kts 144°
2026-05-06 17:13 37.52808 -4.58499 3508 ft 129 kts 144°
2026-05-06 17:14 37.52108 -4.57789 3503 ft 130 kts 144°
2026-05-06 17:14 37.51398 -4.57075 3511 ft 129 kts 147°
2026-05-06 17:14 37.50671 -4.56446 3507 ft 125 kts 151°
2026-05-06 17:14 37.49951 -4.55822 3504 ft 125 kts 149°
2026-05-06 17:15 37.49254 -4.55210 3500 ft 122 kts 149°
2026-05-06 17:15 37.48560 -4.54604 3504 ft 123 kts 149°
2026-05-06 17:15 37.47857 -4.53992 3511 ft 124 kts 150°
2026-05-06 17:15 37.47137 -4.53377 3514 ft 127 kts 149°
2026-05-06 17:16 37.46405 -4.52746 3507 ft 126 kts 150°
2026-05-06 17:16 37.45666 -4.52116 3511 ft 129 kts 149°
2026-05-06 17:16 37.44926 -4.51491 3515 ft 127 kts 150°
2026-05-06 17:16 37.44201 -4.50873 3508 ft 129 kts 152°
2026-05-06 17:17 37.43464 -4.50253 3510 ft 124 kts 148°
2026-05-06 17:17 37.42744 -4.49656 3509 ft 123 kts 150°
2026-05-06 17:17 37.42018 -4.49065 3500 ft 124 kts 149°
2026-05-06 17:17 37.41296 -4.48473 3506 ft 124 kts 150°
2026-05-06 17:18 37.40585 -4.47870 3508 ft 125 kts 149°
2026-05-06 17:18 37.39868 -4.47248 3505 ft 125 kts 150°
2026-05-06 17:18 37.39177 -4.46561 3507 ft 129 kts 144°
2026-05-06 17:18 37.38482 -4.45835 3504 ft 130 kts 143°
2026-05-06 17:19 37.37795 -4.45110 3508 ft 128 kts 143°
2026-05-06 17:19 37.37129 -4.44394 3506 ft 126 kts 144°
2026-05-06 17:19 37.36451 -4.43682 3505 ft 128 kts 144°
2026-05-06 17:19 37.35766 -4.42974 3503 ft 127 kts 142°
2026-05-06 17:20 37.35082 -4.42292 3509 ft 125 kts 144°
2026-05-06 17:20 37.34407 -4.41630 3504 ft 123 kts 144°
2026-05-06 17:20 37.33734 -4.40963 3503 ft 122 kts 144°
2026-05-06 17:20 37.33058 -4.40282 3508 ft 126 kts 143°
2026-05-06 17:21 37.32378 -4.39594 3509 ft 126 kts 143°
2026-05-06 17:21 37.31695 -4.38905 3516 ft 126 kts 144°
2026-05-06 17:21 37.31011 -4.38209 3522 ft 129 kts 143°
2026-05-06 17:21 37.30319 -4.37502 3519 ft 127 kts 143°
2026-05-06 17:22 37.29625 -4.36800 3525 ft 130 kts 144°
2026-05-06 17:22 37.28907 -4.36077 3525 ft 135 kts 143°
2026-05-06 17:22 37.28181 -4.35346 3516 ft 132 kts 143°
2026-05-06 17:22 37.27463 -4.34622 3516 ft 132 kts 144°
2026-05-06 17:23 37.26747 -4.33905 3516 ft 131 kts 144°
2026-05-06 17:23 37.26034 -4.33191 3515 ft 131 kts 143°
2026-05-06 17:23 37.25323 -4.32475 3514 ft 131 kts 143°
2026-05-06 17:23 37.24560 -4.31832 3516 ft 134 kts 155°
2026-05-06 17:24 37.23746 -4.31264 3521 ft 135 kts 154°
2026-05-06 17:24 37.22921 -4.30694 3512 ft 134 kts 155°
2026-05-06 17:24 37.22114 -4.30160 3512 ft 130 kts 154°
2026-05-06 17:24 37.21310 -4.29625 3523 ft 131 kts 155°
2026-05-06 17:25 37.20511 -4.29090 3518 ft 131 kts 153°
2026-05-06 17:25 37.19687 -4.28561 3520 ft 136 kts 155°
2026-05-06 17:25 37.18850 -4.27990 3518 ft 134 kts 154°
2026-05-06 17:25 37.18038 -4.27447 3510 ft 131 kts 154°
2026-05-06 17:26 37.17241 -4.26910 3515 ft 130 kts 155°
2026-05-06 17:26 37.16563 -4.26209 3502 ft 129 kts 114°
2026-05-06 17:26 37.16606 -4.25168 3517 ft 120 kts 60°
2026-05-06 17:26 37.16928 -4.24194 3520 ft 122 kts 65°
2026-05-06 17:27 37.17143 -4.23159 3513 ft 124 kts 90°
2026-05-06 17:27 37.17149 -4.22103 3503 ft 115 kts 76°
2026-05-06 17:27 37.17155 -4.21071 3522 ft 124 kts 87°
2026-05-06 17:27 37.17046 -4.19990 3525 ft 127 kts 97°
2026-05-06 17:28 37.16866 -4.18900 3532 ft 128 kts 107°
2026-05-06 17:28 37.16530 -4.17903 3614 ft 124 kts 130°
2026-05-06 17:28 37.15946 -4.17138 3734 ft 122 kts 135°
2026-05-06 17:28 37.15361 -4.16345 3814 ft 123 kts 135°
2026-05-06 17:29 37.14786 -4.15584 3906 ft 116 kts 135°
2026-05-06 17:29 37.14234 -4.14848 4004 ft 114 kts 134°
2026-05-06 17:29 37.13708 -4.14147 4107 ft 108 kts 134°
2026-05-06 17:29 37.13191 -4.13455 4199 ft 109 kts 135°
2026-05-06 17:30 37.12676 -4.12763 4303 ft 112 kts 134°
2026-05-06 17:30 37.12133 -4.12038 4415 ft 117 kts 135°
2026-05-06 17:30 37.11570 -4.11280 4517 ft 120 kts 136°
2026-05-06 17:30 37.10940 -4.10547 4512 ft 124 kts 147°
2026-05-06 17:31 37.10460 -4.10167 4519 ft 123 kts 151°
2026-05-06 17:31 37.09725 -4.09599 4515 ft 123 kts 151°
2026-05-06 17:31 37.09033 -4.09064 4525 ft 115 kts 150°
2026-05-06 17:31 37.08331 -4.08504 4532 ft 124 kts 149°
2026-05-06 17:32 37.07655 -4.07827 4522 ft 121 kts 141°
2026-05-06 17:32 37.07038 -4.07145 4523 ft 112 kts 139°
2026-05-06 17:32 37.06466 -4.06522 4512 ft 109 kts 140°
2026-05-06 17:32 37.05875 -4.05892 4524 ft 115 kts 140°
2026-05-06 17:33 37.05254 -4.05229 4525 ft 118 kts 140°
2026-05-06 17:33 37.04619 -4.04540 4525 ft 125 kts 140°
2026-05-06 17:33 37.03954 -4.03789 4499 ft 130 kts 133°
2026-05-06 17:33 37.03736 -4.02733 4435 ft 129 kts 77°
2026-05-06 17:34 37.03864 -4.01601 4316 ft 132 kts 79°
2026-05-06 17:34 37.04001 -4.00444 4192 ft 136 kts 79°
2026-05-06 17:34 37.04155 -3.99308 4067 ft 129 kts 68°
2026-05-06 17:34 37.04467 -3.98256 3946 ft 130 kts 69°
2026-05-06 17:35 37.04785 -3.97206 3837 ft 129 kts 68°
2026-05-06 17:35 37.05107 -3.96139 3716 ft 132 kts 69°
2026-05-06 17:35 37.05426 -3.95066 3602 ft 134 kts 67°
2026-05-06 17:36 37.06079 -3.92961 3495 ft 123 kts 66°
2026-05-06 17:36 37.06281 -3.91909 3499 ft 124 kts 79°
2026-05-06 17:36 37.06422 -3.90858 3493 ft 120 kts 77°
2026-05-06 17:36 37.06561 -3.89831 3490 ft 120 kts 78°
2026-05-06 17:37 37.06697 -3.88816 3505 ft 119 kts 78°
2026-05-06 17:37 37.06872 -3.87798 3504 ft 119 kts 71°
2026-05-06 17:37 37.07095 -3.86800 3498 ft 118 kts 73°
2026-05-06 17:37 37.07308 -3.85811 3497 ft 121 kts 72°
2026-05-06 17:38 37.07509 -3.84818 3419 ft 105 kts 76°
2026-05-06 17:38 37.07647 -3.84009 3305 ft 90 kts 73°
2026-05-06 17:38 37.07848 -3.83276 3217 ft 87 kts 69°
2026-05-06 17:38 37.08060 -3.82568 3182 ft 88 kts 64°
2026-05-06 17:39 37.08269 -3.81866 3083 ft 86 kts 69°
2026-05-06 17:39 37.08445 -3.81148 2983 ft 84 kts 71°
2026-05-06 17:39 37.08594 -3.80429 2824 ft 84 kts 73°
2026-05-06 17:39 37.08748 -3.79730 2691 ft 82 kts 73°
2026-05-06 17:40 37.08904 -3.79060 2591 ft 77 kts 71°
2026-05-06 17:40 37.09025 -3.78528 2555 ft 37 kts 75°
2026-05-06 17:40 37.09040 -3.78420 2544 ft 3 kts 44°
2026-05-06 17:40 37.09045 -3.78440 2551 ft 5 kts 258°
2026-05-06 17:41 37.09035 -3.78488 2553 ft 7 kts 259°
2026-05-06 17:41 37.09018 -3.78546 2556 ft 8 kts 247°
2026-05-06 17:41 37.09001 -3.78614 2559 ft 9 kts 268°
2026-05-06 17:41 37.08987 -3.78694 2560 ft 9 kts 253°
2026-05-06 17:42 37.08966 -3.78776 2560 ft 11 kts 253°
2026-05-06 17:42 37.08944 -3.78865 2561 ft 9 kts 255°
2026-05-06 17:42 37.08954 -3.78917 2562 ft 5 kts 339°
2026-05-06 17:42 37.08984 -3.78937 2561 ft 5 kts 292°
2026-05-06 17:43 37.08988 -3.78967 2563 ft 0 kts 284°